This demonstration page uses our WeatherBlox Daily Observations layout. Learn more.

Hourly Observations for August 24, 2020

Temp ( °F °C ) Dew Point ( °F °C ) Humidity (%) Winds ( mph kmh ) Pressure ( in mb ) Visibility ( mi km ) Precip ( " mm )
12:51 am 00:51 Clear 87 30.6 51 10.6 29 29 Calm 29.78 1009 10 16.0934 0 0
1:51 am 01:51 Clear 83 28.3 52 11.1 34 34 SE 6 9 29.77 1008 10 16.0934 0 0
2:51 am 02:51 Clear 79 26.1 52 11.1 39 39 S 3 6 29.77 1008 10 16.0934 0 0
3:51 am 03:51 Clear 80 26.7 52 11.1 38 38 ESE 7 11 29.75 1008 10 16.0934 0 0
4:51 am 04:51 Clear 79 26.1 52 11.1 39 39 E 5 7 29.77 1008 10 16.0934 0 0
5:51 am 05:51 Sunny 75 23.9 52 11.1 45 45 E 3 6 29.81 1010 10 16.0934 0 0
6:51 am 06:51 Sunny 82 27.8 51 10.6 34 34 ESE 10 17 29.82 1010 10 16.0934 0 0
7:51 am 07:51 Sunny 85 29.4 52 11.1 32 32 ESE 10 17 29.83 1010 10 16.0934 0 0
8:51 am 08:51 Sunny 91 32.8 52 11.1 26 26 ESE 10 17 29.83 1010 10 16.0934 0 0
9:51 am 09:51 Sunny 93 33.9 51 10.6 24 24 ESE 9 15 29.83 1010 10 16.0934 0 0
10:51 am 10:51 Sunny 97 36.1 51 10.6 21 21 VRB 6 9 29.8 1009 10 16.0934 0 0
11:51 am 11:51 Sunny 100 37.8 50 10 18 18 S 8 13 29.77 1008 10 16.0934 0 0
12:51 pm 12:51 Sunny 101 38.3 49 9.4 17 17 SSE 5 7 29.75 1007 10 16.0934 0 0
1:51 pm 13:51 Sunny 102 38.9 48 8.9 16 16 undefined N/A 29.71 1006 10 16.0934 0 0
2:51 pm 14:51 Sunny 104 40 47 8.3 15 15 VRB 6 9 29.69 1005 10 16.0934 0 0
3:51 pm 15:51 Sunny 105 40.6 45 7.2 13 13 undefined N/A 29.65 1004 10 16.0934 0 0
4:51 pm 16:51 Sunny 104 40 45 7.2 13 13 S 5 7 29.65 1004 10 16.0934 0 0
5:51 pm 17:51 Sunny 103 39.4 44 6.7 13 13 WSW 5 7 29.65 1004 10 16.0934 0 0
6:51 pm 18:51 Sunny 100 37.8 44 6.7 15 15 WSW 3 6 29.65 1004 10 16.0934 0 0
7:51 pm 19:51 Clear 98 36.7 47 8.3 17 17 VRB 5 7 29.68 1005 10 16.0934 0 0
8:51 pm 20:51 Clear 96 35.6 49 9.4 20 20 NE 25 41 29.69 1006 10 16.0934 0 0
9:51 pm 21:51 Clear 95 35 48 8.9 20 20 ENE 10 17 29.7 1006 10 16.0934 0 0
10:51 pm 22:51 Clear 94 34.4 48 8.9 21 21 SW 5 7 29.72 1007 10 16.0934 0 0
11:51 pm 23:51 Clear 93 33.9 48 8.9 21 21 NW 7 11 29.74 1007 10 16.0934 0 0

Powered by AerisWeather